Darstellungsparameter: Aktuell verwendete Einstellungen:
Skalierung der Graphiken ... ?
xyx+y,   Skalierungsfaktor:      Skalierung: Modus: x, Faktor: 1
Darstellungszeitraum ... ?
Vom - - bis: - -   Zeitraum: 21.04.2010 - 27.04.2010
Min/Max/Avg-Anzeige ... ?
Zeige MMA aktuell
Zeige MMA Monat
Zeige MMA alles
Zeige --A aktuell
Zeige --A Monat
Zeige --A alles
Keine MMA-Anzeige
MMA:
Average (ber die Originaldaten)
MMA-Basis: 21.04.2010 - 27.04.2010
Quicknavigation für Darstellung... ?
Tage:      1T, 2T, 3T, 5T -1T -2T -3T -5T +1T +2T +3T +5T
Wochen: 1W, 2W, 3W -1W -2W -3W +1W +2W +3W
Monate: 1M, 3M, 6M -1M -3M -6M +1M +3M +6M
Jahre:    1J, 3J, 5J, 10J -1J -3J -5J -10J +1J +3J +5J +10J
Nutze für die Darstellung ... ?
Originaldaten oder Mittelwerte auf ...
Stundenbasis Tagesbasis Wochenbasis
Monatsbasis Jahresbasis      Datenbasis: Original-Daten
Darstellen als:
Statistik (Auto) Statistik J:M      Darstellung:
Zur Graphik,    zurück zur Übersicht aller Sensoren.
 
Tabellarische Datenbersicht: ?
 
Sensor: Nr:Datum:Temp:Abs-Feuchte:Windchill:Wind:
Aussen-T/F 1 21-04-2010 00:07:03 8.2 C 3.35 g/m*3 8.2 C 0 km/h
2 21-04-2010 00:19:03 8 C 3.39 g/m*3 8 C 0 km/h
3 21-04-2010 00:31:03 7.8 C 3.51 g/m*3 7.8 C 0 km/h
4 21-04-2010 00:43:03 7.8 C 3.59 g/m*3 7.8 C 0 km/h
5 21-04-2010 00:55:03 7.5 C 3.6 g/m*3 7.5 C 0 km/h
6 21-04-2010 01:07:03 7.2 C 3.61 g/m*3 7.2 C 0 km/h
7 21-04-2010 01:19:03 7 C 3.56 g/m*3 7 C 0 km/h
8 21-04-2010 01:31:03 7 C 3.64 g/m*3 7 C 0 km/h
9 21-04-2010 01:43:03 6.7 C 3.65 g/m*3 6.7 C 0 km/h
10 21-04-2010 01:55:03 6.5 C 3.75 g/m*3 6.5 C 0 km/h
11 21-04-2010 02:07:03 6.3 C 3.7 g/m*3 6.3 C 0 km/h
12 21-04-2010 02:19:03 6.1 C 3.73 g/m*3 6.1 C 0 km/h
13 21-04-2010 02:31:03 5.9 C 3.82 g/m*3 5.9 C 0 km/h
14 21-04-2010 02:43:03 5.6 C 3.89 g/m*3 5.6 C 0 km/h
15 21-04-2010 02:55:03 5.2 C 3.86 g/m*3 5.2 C 0 km/h
16 21-04-2010 03:07:03 4.9 C 4.05 g/m*3 4.9 C 0 km/h
17 21-04-2010 03:19:03 4.7 C 4 g/m*3 4.7 C 0 km/h
18 21-04-2010 03:31:03 4.7 C 4 g/m*3 4.7 C 0 km/h
19 21-04-2010 03:43:03 4.6 C 3.97 g/m*3 4.6 C 0 km/h
20 21-04-2010 03:55:03 4.4 C 3.98 g/m*3 4.4 C 0 km/h
21 21-04-2010 04:07:04 4.3 C 4.02 g/m*3 4.3 C 0 km/h
22 21-04-2010 04:19:04 4 C 3.94 g/m*3 4 C 0 km/h
23 21-04-2010 04:31:04 3.9 C 4.04 g/m*3 3.9 C 0 km/h
24 21-04-2010 04:43:04 3.7 C 4.05 g/m*3 3.7 C 0 km/h
25 21-04-2010 04:55:04 3.5 C 4.06 g/m*3 3.5 C 0 km/h
Sensor: Nr:Datum:Temp:Abs-Feuchte:Windchill:Wind:
Aussen-T/F 26 21-04-2010 05:07:04 3.2 C 4.04 g/m*3 3.2 C 0 km/h
27 21-04-2010 05:19:04 3 C 4.04 g/m*3 3 C 0 km/h
28 21-04-2010 05:31:04 2.8 C 4.11 g/m*3 2.8 C 0 km/h
29 21-04-2010 05:43:04 2.6 C 4.05 g/m*3 2.6 C 0 km/h
30 21-04-2010 05:55:04 2.6 C 4.05 g/m*3 2.6 C 0 km/h
31 21-04-2010 06:07:04 2.5 C 4.08 g/m*3 2.5 C 0 km/h
32 21-04-2010 06:19:04 2.4 C 4.05 g/m*3 2.4 C 0 km/h
33 21-04-2010 06:31:04 2.4 C 4.05 g/m*3 2.4 C 0 km/h
34 21-04-2010 06:43:04 2.3 C 4.08 g/m*3 2.3 C 0 km/h
35 21-04-2010 06:55:04 2.4 C 4.11 g/m*3 2.4 C 0 km/h
36 21-04-2010 07:07:03 2.5 C 4.08 g/m*3 2.5 C 0 km/h
37 21-04-2010 07:19:02 2.7 C 4.08 g/m*3 2.7 C 0 km/h
38 21-04-2010 07:31:03 2.8 C 4.11 g/m*3 2.8 C 0 km/h
39 21-04-2010 07:43:03 3.1 C 4.07 g/m*3 3.1 C 0 km/h
40 21-04-2010 07:55:02 3.6 C 4.15 g/m*3 3.6 C 0 km/h
41 21-04-2010 08:07:02 4 C 4.01 g/m*3 4 C 0 km/h
42 21-04-2010 08:19:02 4.1 C 3.97 g/m*3 4.1 C 0 km/h
43 21-04-2010 08:31:02 4.2 C 4.06 g/m*3 4.2 C 0 km/h
44 21-04-2010 08:43:02 4.4 C 4.11 g/m*3 4.4 C 0 km/h
45 21-04-2010 08:55:02 4.6 C 4.17 g/m*3 4.6 C 0 km/h
46 21-04-2010 09:07:03 4.7 C 4.2 g/m*3 4.7 C 0 km/h
47 21-04-2010 09:19:02 5 C 4.14 g/m*3 5 C 0 km/h
48 21-04-2010 09:31:03 5.3 C 4.09 g/m*3 5.3 C 0 km/h
49 21-04-2010 09:43:03 5.7 C 4.2 g/m*3 5.7 C 0 km/h
50 21-04-2010 09:55:02 6 C 4.06 g/m*3 6 C 0 km/h
Sensor: Nr:Datum:Temp:Abs-Feuchte:Windchill:Wind:
Aussen-T/F 51 21-04-2010 10:07:02 6.5 C 4.05 g/m*3 6.5 C 0 km/h
52 21-04-2010 10:19:01 6.8 C 4.13 g/m*3 6.8 C 0 km/h
53 21-04-2010 10:31:02 7.5 C 4.16 g/m*3 7.5 C 0 km/h
54 21-04-2010 10:43:03 7.6 C 4.03 g/m*3 7.6 C 0 km/h
55 21-04-2010 10:55:02 6.7 C 4.41 g/m*3 6.7 C 0 km/h
56 21-04-2010 11:07:02 6.5 C 4.8 g/m*3 6.5 C 0 km/h
57 21-04-2010 11:19:02 6.9 C 5.08 g/m*3 6.9 C 0 km/h
58 21-04-2010 11:31:02 7.1 C 4.91 g/m*3 7.1 C 0 km/h
59 21-04-2010 11:43:03 7.1 C 4.84 g/m*3 7.1 C 0 km/h
60 21-04-2010 11:55:01 6.7 C 4.79 g/m*3 6.7 C 0 km/h
61 21-04-2010 12:07:02 6.2 C 4.85 g/m*3 6.2 C 0 km/h
62 21-04-2010 12:19:01 5.7 C 5.19 g/m*3 5.7 C 0 km/h
63 21-04-2010 12:31:01 6.7 C 5.62 g/m*3 6.7 C 0 km/h
64 21-04-2010 12:43:01 7.8 C 5.55 g/m*3 7.8 C 0 km/h
65 21-04-2010 12:55:01 8.5 C 5.55 g/m*3 8.5 C 0 km/h
66 21-04-2010 13:07:02 9.5 C 5.28 g/m*3 9.5 C 0 km/h
67 21-04-2010 13:19:01 9.1 C 4.44 g/m*3 9.1 C 0 km/h
68 21-04-2010 13:31:02 9.6 C 4.49 g/m*3 9.6 C 0 km/h
69 21-04-2010 13:43:02 9.7 C 4.15 g/m*3 9.7 C 0 km/h
70 21-04-2010 13:55:02 9.8 C 4.27 g/m*3 9.8 C 0 km/h
71 21-04-2010 14:07:02 10.4 C 4.24 g/m*3 10.4 C 0 km/h
72 21-04-2010 14:19:01 10.6 C 3.9 g/m*3 10.6 C 0 km/h
73 21-04-2010 14:31:02 10.9 C 3.68 g/m*3 10.9 C 0 km/h
74 21-04-2010 14:43:02 10.5 C 3.59 g/m*3 10.5 C 0 km/h
75 21-04-2010 14:55:02 10.8 C 3.56 g/m*3 10.8 C 0 km/h
Sensor: Nr:Datum:Temp:Abs-Feuchte:Windchill:Wind:
Aussen-T/F 76 21-04-2010 15:07:02 11.7 C 3.66 g/m*3 11.7 C 0 km/h
77 21-04-2010 15:19:02 12 C 3.09 g/m*3 12 C 0 km/h
78 21-04-2010 15:31:02 11.7 C 3.14 g/m*3 11.7 C 0 km/h
79 21-04-2010 15:43:02 12 C 2.98 g/m*3 12 C 0 km/h
80 21-04-2010 15:55:02 12.1 C 3 g/m*3 12.1 C 0 km/h
81 21-04-2010 16:07:02 12.6 C 2.88 g/m*3 12.6 C 0 km/h
82 21-04-2010 16:19:02 13.4 C 2.91 g/m*3 13.4 C 0 km/h
83 21-04-2010 16:31:02 13.2 C 2.99 g/m*3 13.2 C 0 km/h
84 21-04-2010 16:43:02 12.1 C 3 g/m*3 12.1 C 0 km/h
85 21-04-2010 16:55:01 12.2 C 3.24 g/m*3 12.2 C 0 km/h
86 21-04-2010 17:07:02 12.4 C 2.95 g/m*3 12.4 C 0 km/h
87 21-04-2010 17:19:01 12.2 C 2.81 g/m*3 12.2 C 0 km/h
88 21-04-2010 17:31:02 12.1 C 2.79 g/m*3 12.1 C 0 km/h
89 21-04-2010 17:43:02 12.8 C 2.8 g/m*3 12.8 C 0 km/h
90 21-04-2010 17:55:02 12 C 2.56 g/m*3 12 C 0 km/h
91 21-04-2010 18:07:02 12.2 C 2.7 g/m*3 12.2 C 0 km/h
92 21-04-2010 18:19:01 12.5 C 2.75 g/m*3 12.5 C 0 km/h
93 21-04-2010 18:31:02 12.4 C 2.73 g/m*3 12.4 C 0 km/h
94 21-04-2010 18:43:02 12.3 C 2.17 g/m*3 12.3 C 0 km/h
95 21-04-2010 18:55:02 12.4 C 2.29 g/m*3 12.4 C 0 km/h
96 21-04-2010 19:07:02 11.6 C 2.18 g/m*3 11.6 C 0 km/h
97 21-04-2010 19:19:01 11.2 C 2.53 g/m*3 11.2 C 0 km/h
98 21-04-2010 19:31:02 11.3 C 2.24 g/m*3 11.3 C 0 km/h
99 21-04-2010 19:43:02 11.4 C 2.36 g/m*3 11.4 C 0 km/h
100 21-04-2010 19:55:02 10.8 C 2.47 g/m*3 10.8 C 0 km/h
Sensor: Nr:Datum:Temp:Abs-Feuchte:Windchill:Wind:
Aussen-T/F 101 21-04-2010 20:07:02 10.1 C 2.46 g/m*3 10.1 C 0 km/h
102 21-04-2010 20:19:02 9.6 C 2.66 g/m*3 9.6 C 0 km/h
103 21-04-2010 20:31:02 9.2 C 2.68 g/m*3 9.2 C 0 km/h
104 21-04-2010 20:43:02 8.8 C 2.79 g/m*3 8.8 C 0 km/h
105 21-04-2010 20:55:02 8.4 C 2.88 g/m*3 8.4 C 0 km/h
106 21-04-2010 21:07:02 8.1 C 2.91 g/m*3 8.1 C 0 km/h
107 21-04-2010 21:19:02 7.6 C 2.98 g/m*3 7.6 C 0 km/h
108 21-04-2010 21:31:02 7.2 C 2.98 g/m*3 7.2 C 0 km/h
109 21-04-2010 21:43:02 6.9 C 3.08 g/m*3 6.9 C 0 km/h
110 21-04-2010 21:55:01 6.6 C 3.1 g/m*3 6.6 C 0 km/h
111 21-04-2010 22:08:02 6.5 C 3.07 g/m*3 6.5 C 0 km/h
112 21-04-2010 22:20:02 6.5 C 3.07 g/m*3 6.5 C 0 km/h
113 21-04-2010 22:32:02 6.3 C 3.03 g/m*3 6.3 C 0 km/h
114 21-04-2010 22:44:02 6.2 C 3.16 g/m*3 6.2 C 0 km/h
115 21-04-2010 22:56:02 5.9 C 3.24 g/m*3 5.9 C 0 km/h
116 21-04-2010 23:08:02 5.6 C 3.32 g/m*3 5.6 C 0 km/h
117 21-04-2010 23:20:02 5.3 C 3.33 g/m*3 5.3 C 0 km/h
118 21-04-2010 23:32:02 5 C 3.4 g/m*3 5 C 0 km/h
119 21-04-2010 23:44:02 4.8 C 3.49 g/m*3 4.8 C 0 km/h
120 21-04-2010 23:56:02 4.5 C 3.42 g/m*3 4.5 C 0 km/h
121 22-04-2010 00:08:02 4.3 C 3.5 g/m*3 4.3 C 0 km/h
122 22-04-2010 00:20:03 4.1 C 3.46 g/m*3 4.1 C 0 km/h
123 22-04-2010 00:32:03 3.8 C 3.51 g/m*3 3.8 C 0 km/h
124 22-04-2010 00:44:03 3.6 C 3.47 g/m*3 3.6 C 0 km/h
125 22-04-2010 00:56:03 3.5 C 3.57 g/m*3 3.5 C 0 km/h
Sensor: Nr:Datum:Temp:Abs-Feuchte:Windchill:Wind:
Aussen-T/F 126 22-04-2010 01:08:03 3.4 C 3.6 g/m*3 3.4 C 0 km/h
127 22-04-2010 01:20:03 3.1 C 3.59 g/m*3 3.1 C 0 km/h
128 22-04-2010 01:32:03 2.9 C 3.66 g/m*3 2.9 C 0 km/h
129 22-04-2010 01:44:03 2.7 C 3.67 g/m*3 2.7 C 0 km/h
130 22-04-2010 01:56:03 2.5 C 3.68 g/m*3 2.5 C 0 km/h
131 22-04-2010 02:08:03 2.3 C 3.69 g/m*3 2.3 C 0 km/h
132 22-04-2010 02:20:03 2.2 C 3.72 g/m*3 2.2 C 0 km/h
133 22-04-2010 02:32:03 2 C 3.78 g/m*3 2 C 0 km/h
134 22-04-2010 02:44:03 2 C 3.78 g/m*3 2 C 0 km/h
135 22-04-2010 02:56:03 1.7 C 3.76 g/m*3 1.7 C 0 km/h
136 22-04-2010 03:08:03 1.5 C 3.71 g/m*3 1.5 C 0 km/h
137 22-04-2010 03:20:03 1.3 C 3.71 g/m*3 1.3 C 0 km/h
138 22-04-2010 03:32:03 1.3 C 3.76 g/m*3 1.3 C 0 km/h
139 22-04-2010 03:44:03 1.2 C 3.74 g/m*3 1.2 C 0 km/h
140 22-04-2010 03:56:03 1.1 C 3.76 g/m*3 1.1 C 0 km/h
141 22-04-2010 04:08:03 1 C 3.79 g/m*3 1 C 0 km/h
142 22-04-2010 04:20:03 0.9 C 3.81 g/m*3 0.9 C 0 km/h
143 22-04-2010 04:32:03 0.8 C 3.79 g/m*3 0.8 C 0 km/h
144 22-04-2010 04:44:04 0.7 C 3.81 g/m*3 0.7 C 0 km/h
145 22-04-2010 04:56:04 0.6 C 3.84 g/m*3 0.6 C 0 km/h
146 22-04-2010 05:08:04 0.5 C 3.76 g/m*3 0.5 C 0 km/h
147 22-04-2010 05:20:04 0.5 C 3.81 g/m*3 0.5 C 0 km/h
148 22-04-2010 05:32:04 0.3 C 3.76 g/m*3 0.3 C 0 km/h
149 22-04-2010 05:44:04 0.2 C 3.78 g/m*3 0.2 C 0 km/h
150 22-04-2010 05:56:04 0 C 3.73 g/m*3 0 C 0 km/h
Sensor: Nr:Datum:Temp:Abs-Feuchte:Windchill:Wind:
Aussen-T/F 151 22-04-2010 06:08:04 -0.2 C 3.68 g/m*3 -0.2 C 0 km/h
152 22-04-2010 06:20:04 -0.2 C 3.73 g/m*3 -0.2 C 0 km/h
153 22-04-2010 06:32:04 -0.2 C 3.73 g/m*3 -0.2 C 0 km/h
154 22-04-2010 06:44:04 -0.1 C 3.8 g/m*3 -0.1 C 0 km/h
155 22-04-2010 06:56:04 -0.1 C 3.85 g/m*3 -0.1 C 0 km/h
156 22-04-2010 07:08:03 -0.2 C 3.82 g/m*3 -0.2 C 0 km/h
157 22-04-2010 07:20:02 -0.2 C 3.87 g/m*3 -0.2 C 0 km/h
158 22-04-2010 07:32:02 0 C 3.92 g/m*3 0 C 0 km/h
159 22-04-2010 07:44:02 0.1 C 3.95 g/m*3 0.1 C 0 km/h
160 22-04-2010 07:56:02 0.3 C 4.01 g/m*3 0.3 C 0 km/h
161 22-04-2010 08:08:02 0.3 C 3.96 g/m*3 0.3 C 0 km/h
162 22-04-2010 08:20:02 0.5 C 4.01 g/m*3 0.5 C 0 km/h
163 22-04-2010 08:32:02 0.6 C 3.99 g/m*3 0.6 C 0 km/h
164 22-04-2010 08:44:02 0.9 C 4.02 g/m*3 0.9 C 0 km/h
165 22-04-2010 08:56:02 1.3 C 4.08 g/m*3 1.3 C 0 km/h
166 22-04-2010 09:08:02 1.7 C 4.08 g/m*3 1.7 C 0 km/h
167 22-04-2010 09:20:02 2.2 C 4 g/m*3 2.2 C 0 km/h
168 22-04-2010 09:32:03 2.8 C 4.05 g/m*3 2.8 C 0 km/h
169 22-04-2010 09:44:03 3.5 C 4.12 g/m*3 3.5 C 0 km/h
170 22-04-2010 09:56:02 4.5 C 4.21 g/m*3 4.5 C 0 km/h
171 22-04-2010 10:08:01 5.2 C 3.99 g/m*3 5.2 C 0 km/h
172 22-04-2010 10:20:02 5.7 C 3.99 g/m*3 5.7 C 0 km/h
173 22-04-2010 10:32:02 6.4 C 3.73 g/m*3 6.4 C 0 km/h
174 22-04-2010 10:44:02 6.8 C 3.44 g/m*3 6.8 C 0 km/h
175 22-04-2010 10:56:02 7.3 C 3.24 g/m*3 7.3 C 0 km/h
Sensor: Nr:Datum:Temp:Abs-Feuchte:Windchill:Wind:
Aussen-T/F 176 22-04-2010 11:08:02 8.3 C 3.2 g/m*3 8.3 C 0 km/h
177 22-04-2010 11:20:02 8.7 C 3.03 g/m*3 8.7 C 0 km/h
178 22-04-2010 11:32:03 9 C 2.91 g/m*3 9 C 0 km/h
179 22-04-2010 11:44:03 9.7 C 3.04 g/m*3 9.7 C 0 km/h
180 22-04-2010 11:56:02 9.9 C 2.89 g/m*3 9.9 C 0 km/h
181 22-04-2010 12:08:01 10 C 2.82 g/m*3 10 C 0 km/h
182 22-04-2010 12:20:02 10.4 C 2.89 g/m*3 10.4 C 0 km/h
183 22-04-2010 12:32:02 10.9 C 2.88 g/m*3 10.9 C 0 km/h
184 22-04-2010 12:44:02 11.1 C 2.92 g/m*3 11.1 C 0 km/h
185 22-04-2010 12:56:02 11.4 C 2.77 g/m*3 11.4 C 0 km/h
186 22-04-2010 13:08:01 12 C 2.66 g/m*3 12 C 0 km/h
187 22-04-2010 13:20:01 12 C 2.13 g/m*3 12 C 0 km/h
188 22-04-2010 13:32:02 13 C 2.27 g/m*3 13 C 0 km/h
189 22-04-2010 13:44:02 13.5 C 2.34 g/m*3 13.5 C 0 km/h
190 22-04-2010 13:56:02 13.3 C 2.31 g/m*3 13.3 C 0 km/h
191 22-04-2010 14:08:02 13.8 C 2.38 g/m*3 13.8 C 0 km/h
192 22-04-2010 14:20:02 14.9 C 2.55 g/m*3 14.9 C 0 km/h
193 22-04-2010 14:32:02 15.5 C 2.64 g/m*3 15.5 C 0 km/h
194 22-04-2010 14:44:02 16 C 2.72 g/m*3 16 C 0 km/h
195 22-04-2010 14:56:02 16.3 C 2.77 g/m*3 16.3 C 0 km/h
196 22-04-2010 15:08:01 16.1 C 2.74 g/m*3 16.1 C 0 km/h
197 22-04-2010 15:20:02 16 C 2.72 g/m*3 16 C 0 km/h
198 22-04-2010 15:32:02 16 C 2.72 g/m*3 16 C 0 km/h
199 22-04-2010 15:44:02 17.5 C 2.98 g/m*3 17.5 C 0 km/h
200 22-04-2010 15:56:02 16.3 C 2.77 g/m*3 16.3 C 0 km/h
Sensor: Nr:Datum:Temp:Abs-Feuchte:Windchill:Wind:
Aussen-T/F 201 22-04-2010 16:08:02 16.3 C 2.77 g/m*3 16.3 C 0 km/h
202 22-04-2010 16:20:02 17.9 C 3.05 g/m*3 17.9 C 0 km/h
203 22-04-2010 16:32:03 18.9 C 3.24 g/m*3 18.9 C 0 km/h
204 22-04-2010 16:44:03 17.5 C 2.98 g/m*3 17.5 C 0 km/h
205 22-04-2010 16:56:02 18.8 C 3.22 g/m*3 18.8 C 0 km/h
206 22-04-2010 17:08:01 19.4 C 3.34 g/m*3 19.4 C 0 km/h
207 22-04-2010 17:20:02 19.4 C 3.34 g/m*3 19.4 C 0 km/h
208 22-04-2010 17:32:02 19.8 C 3.42 g/m*3 19.8 C 0 km/h
209 22-04-2010 17:44:02 21.6 C 3.79 g/m*3 21.6 C 0 km/h
210 22-04-2010 17:56:02 21.2 C 3.71 g/m*3 21.2 C 0 km/h
211 22-04-2010 18:08:03 19.3 C 3.32 g/m*3 19.3 C 0 km/h
212 22-04-2010 18:20:02 18.5 C 3.16 g/m*3 18.5 C 0 km/h
213 22-04-2010 18:32:02 18.9 C 3.24 g/m*3 18.9 C 0 km/h
214 22-04-2010 18:44:02 18.7 C 3.2 g/m*3 18.7 C 0 km/h
215 22-04-2010 18:56:02 17.8 C 3.04 g/m*3 17.8 C 0 km/h
216 22-04-2010 19:08:02 17.2 C 2.93 g/m*3 17.2 C 0 km/h
217 22-04-2010 19:20:01 17 C 2.89 g/m*3 17 C 0 km/h
218 22-04-2010 19:32:02 16.9 C 2.88 g/m*3 16.9 C 0 km/h
219 22-04-2010 19:44:02 16.5 C 2.81 g/m*3 16.5 C 0 km/h
220 22-04-2010 19:56:02 16.3 C 2.77 g/m*3 16.3 C 0 km/h
221 22-04-2010 20:08:02 15.1 C 2.58 g/m*3 15.1 C 0 km/h
222 22-04-2010 20:20:02 13.9 C 2.4 g/m*3 13.9 C 0 km/h
223 22-04-2010 20:32:02 13.5 C 2.34 g/m*3 13.5 C 0 km/h
224 22-04-2010 20:44:03 12.6 C 2.21 g/m*3 12.6 C 0 km/h
225 22-04-2010 20:56:02 12 C 2.13 g/m*3 12 C 0 km/h
Sensor: Nr:Datum:Temp:Abs-Feuchte:Windchill:Wind:
Aussen-T/F 226 22-04-2010 21:08:03 11.7 C 2.41 g/m*3 11.7 C 0 km/h
227 22-04-2010 21:20:02 11.2 C 2.64 g/m*3 11.2 C 0 km/h
228 22-04-2010 21:32:02 10.7 C 2.65 g/m*3 10.7 C 0 km/h
229 22-04-2010 21:44:02 10.3 C 2.68 g/m*3 10.3 C 0 km/h
230 22-04-2010 21:57:02 10 C 2.82 g/m*3 10 C 0 km/h
231 22-04-2010 22:09:02 9.9 C 2.8 g/m*3 9.9 C 0 km/h
232 22-04-2010 22:21:02 9.5 C 2.73 g/m*3 9.5 C 0 km/h
233 22-04-2010 22:33:02 9.2 C 2.77 g/m*3 9.2 C 0 km/h
234 22-04-2010 22:45:02 9.1 C 2.75 g/m*3 9.1 C 0 km/h
235 22-04-2010 22:57:02 8.7 C 2.94 g/m*3 8.7 C 0 km/h
236 22-04-2010 23:09:02 8.5 C 2.99 g/m*3 8.5 C 0 km/h
237 22-04-2010 23:21:02 8.3 C 3.12 g/m*3 8.3 C 0 km/h
238 22-04-2010 23:33:02 8.2 C 3.18 g/m*3 8.2 C 0 km/h
239 22-04-2010 23:45:02 7.9 C 3.29 g/m*3 7.9 C 0 km/h
240 22-04-2010 23:57:02 7.7 C 3.32 g/m*3 7.7 C 0 km/h
241 23-04-2010 00:09:02 7.3 C 3.32 g/m*3 7.3 C 0 km/h
242 23-04-2010 00:21:02 7.1 C 3.28 g/m*3 7.1 C 0 km/h
243 23-04-2010 00:33:02 6.8 C 3.44 g/m*3 6.8 C 0 km/h
244 23-04-2010 00:45:02 6.5 C 3.37 g/m*3 6.5 C 0 km/h
245 23-04-2010 00:57:03 6.2 C 3.46 g/m*3 6.2 C 0 km/h
246 23-04-2010 01:09:03 6 C 3.41 g/m*3 6 C 0 km/h
247 23-04-2010 01:21:03 5.8 C 3.51 g/m*3 5.8 C 0 km/h
248 23-04-2010 01:33:03 5.5 C 3.51 g/m*3 5.5 C 0 km/h
249 23-04-2010 01:45:03 5.4 C 3.49 g/m*3 5.4 C 0 km/h
250 23-04-2010 01:57:03 5.3 C 3.53 g/m*3 5.3 C 0 km/h
Sensor: Nr:Datum:Temp:Abs-Feuchte:Windchill:Wind:
Aussen-T/F 251 23-04-2010 02:09:03 5 C 3.47 g/m*3 5 C 0 km/h
252 23-04-2010 02:21:03 4.8 C 3.62 g/m*3 4.8 C 0 km/h
253 23-04-2010 02:33:03 4.5 C 3.55 g/m*3 4.5 C 0 km/h
254 23-04-2010 02:45:03 4.4 C 3.59 g/m*3 4.4 C 0 km/h
255 23-04-2010 02:57:03 4.2 C 3.61 g/m*3 4.2 C 0 km/h
256 23-04-2010 03:09:03 3.9 C 3.73 g/m*3 3.9 C 0 km/h
257 23-04-2010 03:21:03 3.7 C 3.68 g/m*3 3.7 C 0 km/h
258 23-04-2010 03:33:03 3.5 C 3.75 g/m*3 3.5 C 0 km/h
259 23-04-2010 03:45:03 3.3 C 3.76 g/m*3 3.3 C 0 km/h
260 23-04-2010 03:57:03 3.2 C 3.74 g/m*3 3.2 C 0 km/h
261 23-04-2010 04:09:03 2.9 C 3.78 g/m*3 2.9 C 0 km/h
262 23-04-2010 04:21:03 2.8 C 3.75 g/m*3 2.8 C 0 km/h
263 23-04-2010 04:33:03 2.7 C 3.73 g/m*3 2.7 C 0 km/h
264 23-04-2010 04:45:03 2.5 C 3.68 g/m*3 2.5 C 0 km/h
265 23-04-2010 04:57:03 2.4 C 3.77 g/m*3 2.4 C 0 km/h
266 23-04-2010 05:09:04 2.2 C 3.66 g/m*3 2.2 C 0 km/h
267 23-04-2010 05:21:04 2.1 C 3.69 g/m*3 2.1 C 0 km/h
268 23-04-2010 05:33:04 1.9 C 3.7 g/m*3 1.9 C 0 km/h
269 23-04-2010 05:45:04 1.7 C 3.7 g/m*3 1.7 C 0 km/h
270 23-04-2010 05:57:04 1.6 C 3.79 g/m*3 1.6 C 0 km/h
271 23-04-2010 06:09:04 1.6 C 3.79 g/m*3 1.6 C 0 km/h
272 23-04-2010 06:21:04 1.4 C 3.79 g/m*3 1.4 C 0 km/h
273 23-04-2010 06:33:04 1.3 C 3.81 g/m*3 1.3 C 0 km/h
274 23-04-2010 06:45:04 1.2 C 3.79 g/m*3 1.2 C 0 km/h
275 23-04-2010 06:57:04 1.3 C 3.81 g/m*3 1.3 C 0 km/h
Sensor: Nr:Datum:Temp:Abs-Feuchte:Windchill:Wind:
Aussen-T/F 276 23-04-2010 07:09:02 1.3 C 3.81 g/m*3 1.3 C 0 km/h
277 23-04-2010 07:21:01 1.3 C 3.81 g/m*3 1.3 C 0 km/h
278 23-04-2010 07:33:02 1.5 C 3.87 g/m*3 1.5 C 0 km/h
279 23-04-2010 07:45:01 1.6 C 3.95 g/m*3 1.6 C 0 km/h
280 23-04-2010 07:57:01 1.8 C 4 g/m*3 1.8 C 0 km/h
281 23-04-2010 08:09:02 2 C 3.95 g/m*3 2 C 0 km/h
282 23-04-2010 08:21:01 2.3 C 4.03 g/m*3 2.3 C 0 km/h
283 23-04-2010 08:33:02 2.5 C 4.02 g/m*3 2.5 C 0 km/h
284 23-04-2010 08:45:02 2.9 C 4.13 g/m*3 2.9 C 0 km/h
285 23-04-2010 08:57:02 3.3 C 4.19 g/m*3 3.3 C 0 km/h
286 23-04-2010 09:09:02 3.8 C 4.27 g/m*3 3.8 C 0 km/h
287 23-04-2010 09:21:01 4.6 C 4.23 g/m*3 4.6 C 0 km/h
288 23-04-2010 09:33:02 5.4 C 4.19 g/m*3 5.4 C 0 km/h
289 23-04-2010 09:45:02 6.1 C 4.09 g/m*3 6.1 C 0 km/h
290 23-04-2010 09:57:02 6.7 C 3.95 g/m*3 6.7 C 0 km/h
291 23-04-2010 10:09:02 7.5 C 4 g/m*3 7.5 C 0 km/h
292 23-04-2010 10:21:01 8.3 C 3.96 g/m*3 8.3 C 0 km/h
293 23-04-2010 10:33:02 9 C 3.97 g/m*3 9 C 0 km/h
294 23-04-2010 10:45:02 9.6 C 3.94 g/m*3 9.6 C 0 km/h
295 23-04-2010 10:57:02 10.3 C 3.83 g/m*3 10.3 C 0 km/h
296 23-04-2010 11:09:02 11 C 3.8 g/m*3 11 C 0 km/h
297 23-04-2010 11:21:01 11.7 C 3.87 g/m*3 11.7 C 0 km/h
298 23-04-2010 11:33:02 12.5 C 3.85 g/m*3 12.5 C 0 km/h
299 23-04-2010 11:45:02 12.9 C 3.49 g/m*3 12.9 C 0 km/h
300 23-04-2010 11:57:02 13.5 C 3.04 g/m*3 13.5 C 0 km/h
Sensor: Nr:Datum:Temp:Abs-Feuchte:Windchill:Wind:
Aussen-T/F 301 23-04-2010 12:09:02 14.2 C 3.05 g/m*3 14.2 C 0 km/h
302 23-04-2010 12:21:02 14.4 C 2.47 g/m*3 14.4 C 0 km/h
303 23-04-2010 12:33:02 14.9 C 2.55 g/m*3 14.9 C 0 km/h
304 23-04-2010 12:45:02 15.2 C 2.6 g/m*3 15.2 C 0 km/h
305 23-04-2010 12:57:02 15.7 C 2.68 g/m*3 15.7 C 0 km/h
306 23-04-2010 13:09:02 16.2 C 2.76 g/m*3 16.2 C 0 km/h
307 23-04-2010 13:21:03 17 C 2.89 g/m*3 17 C 0 km/h
308 23-04-2010 13:33:02 17.4 C 2.96 g/m*3 17.4 C 0 km/h
309 23-04-2010 13:45:02 17.8 C 3.04 g/m*3 17.8 C 0 km/h
310 23-04-2010 13:57:02 17.5 C 2.98 g/m*3 17.5 C 0 km/h
311 23-04-2010 14:09:02 18.4 C 3.15 g/m*3 18.4 C 0 km/h
312 23-04-2010 14:21:02 18.5 C 3.16 g/m*3 18.5 C 0 km/h
313 23-04-2010 14:33:02 19.1 C 3.28 g/m*3 19.1 C 0 km/h
314 23-04-2010 14:45:02 19.6 C 3.38 g/m*3 19.6 C 0 km/h
315 23-04-2010 14:57:02 20.9 C 3.64 g/m*3 20.9 C 0 km/h
316 23-04-2010 15:09:02 22.1 C 3.9 g/m*3 22.1 C 0 km/h
317 23-04-2010 15:21:02 21.6 C 3.79 g/m*3 21.6 C 0 km/h
318 23-04-2010 15:33:02 22.5 C 3.99 g/m*3 22.5 C 0 km/h
319 23-04-2010 15:45:03 22.6 C 4.02 g/m*3 22.6 C 0 km/h
320 23-04-2010 15:57:03 22.5 C 3.99 g/m*3 22.5 C 0 km/h
321 23-04-2010 16:09:02 22.6 C 4.02 g/m*3 22.6 C 0 km/h
322 23-04-2010 16:21:02 22.9 C 4.09 g/m*3 22.9 C 0 km/h
323 23-04-2010 16:33:02 22.9 C 4.09 g/m*3 22.9 C 0 km/h
324 23-04-2010 16:45:02 23 C 4.11 g/m*3 23 C 0 km/h
325 23-04-2010 16:57:02 23.5 C 4.23 g/m*3 23.5 C 0 km/h
Sensor: Nr:Datum:Temp:Abs-Feuchte:Windchill:Wind:
Aussen-T/F 326 23-04-2010 17:09:03 24.5 C 4.48 g/m*3 24.5 C 0 km/h
327 23-04-2010 17:21:03 22.9 C 4.09 g/m*3 22.9 C 0 km/h
328 23-04-2010 17:33:02 22.5 C 3.99 g/m*3 22.5 C 0 km/h
329 23-04-2010 17:45:03 23 C 4.11 g/m*3 23 C 0 km/h
330 23-04-2010 17:57:03 24.5 C 4.48 g/m*3 24.5 C 0 km/h
331 23-04-2010 18:09:02 24.1 C 4.38 g/m*3 24.1 C 0 km/h
332 23-04-2010 18:21:03 22.9 C 4.09 g/m*3 22.9 C 0 km/h
333 23-04-2010 18:33:02 22.6 C 4.02 g/m*3 22.6 C 0 km/h
334 23-04-2010 18:45:02 22.1 C 3.9 g/m*3 22.1 C 0 km/h
335 23-04-2010 18:57:02 21.9 C 3.86 g/m*3 21.9 C 0 km/h
336 23-04-2010 19:09:02 21.9 C 3.86 g/m*3 21.9 C 0 km/h
337 23-04-2010 19:21:02 20.9 C 3.64 g/m*3 20.9 C 0 km/h
338 23-04-2010 19:33:02 20.2 C 3.5 g/m*3 20.2 C 0 km/h
339 23-04-2010 19:45:01 19.4 C 3.34 g/m*3 19.4 C 0 km/h
340 23-04-2010 19:57:01 19.2 C 3.3 g/m*3 19.2 C 0 km/h
341 23-04-2010 20:09:02 18.3 C 3.13 g/m*3 18.3 C 0 km/h
342 23-04-2010 20:21:01 17.6 C 3 g/m*3 17.6 C 0 km/h
343 23-04-2010 20:33:01 17 C 2.89 g/m*3 17 C 0 km/h
344 23-04-2010 20:45:01 16.5 C 2.81 g/m*3 16.5 C 0 km/h
345 23-04-2010 20:57:01 15.6 C 2.66 g/m*3 15.6 C 0 km/h
346 23-04-2010 21:09:01 14.9 C 2.55 g/m*3 14.9 C 0 km/h
347 23-04-2010 21:21:02 14.3 C 2.46 g/m*3 14.3 C 0 km/h
348 23-04-2010 21:33:02 14.2 C 2.44 g/m*3 14.2 C 0 km/h
349 23-04-2010 21:45:02 13.8 C 2.38 g/m*3 13.8 C 0 km/h
350 23-04-2010 21:57:02 13.4 C 2.67 g/m*3 13.4 C 0 km/h
Sensor: Nr:Datum:Temp:Abs-Feuchte:Windchill:Wind:
Aussen-T/F 351 23-04-2010 22:09:02 13.1 C 2.62 g/m*3 13.1 C 0 km/h
352 23-04-2010 22:21:03 12.8 C 2.91 g/m*3 12.8 C 0 km/h
353 23-04-2010 22:33:02 12.6 C 2.88 g/m*3 12.6 C 0 km/h
354 23-04-2010 22:46:04 12.4 C 2.84 g/m*3 12.4 C 0 km/h
355 23-04-2010 22:58:04 12.1 C 3.22 g/m*3 12.1 C 0 km/h
356 23-04-2010 23:10:04 11.7 C 3.24 g/m*3 11.7 C 0 km/h
357 23-04-2010 23:22:04 11.2 C 3.34 g/m*3 11.2 C 0 km/h
358 23-04-2010 23:34:04 10.7 C 3.44 g/m*3 10.7 C 0 km/h
359 23-04-2010 23:46:04 10.5 C 3.39 g/m*3 10.5 C 0 km/h
360 23-04-2010 23:58:04 10.2 C 3.43 g/m*3 10.2 C 0 km/h
361 24-04-2010 00:10:04 10 C 3.38 g/m*3 10 C 0 km/h
362 24-04-2010 00:22:04 9.6 C 3.48 g/m*3 9.6 C 0 km/h
363 24-04-2010 00:34:04 9.5 C 3.46 g/m*3 9.5 C 0 km/h
364 24-04-2010 00:46:04 9.4 C 3.53 g/m*3 9.4 C 0 km/h
365 24-04-2010 00:58:04 9 C 3.7 g/m*3 9 C 0 km/h
366 24-04-2010 01:10:05 8.6 C 3.52 g/m*3 8.6 C 0 km/h
367 24-04-2010 01:22:05 8.5 C 3.5 g/m*3 8.5 C 0 km/h
368 24-04-2010 01:34:05 8.4 C 3.56 g/m*3 8.4 C 0 km/h
369 24-04-2010 01:46:05 8.1 C 3.58 g/m*3 8.1 C 0 km/h
370 24-04-2010 01:58:05 7.9 C 3.61 g/m*3 7.9 C 0 km/h
371 24-04-2010 02:10:05 7.6 C 3.63 g/m*3 7.6 C 0 km/h
372 24-04-2010 02:22:05 7.2 C 3.61 g/m*3 7.2 C 0 km/h
373 24-04-2010 02:34:05 7.1 C 3.59 g/m*3 7.1 C 0 km/h
374 24-04-2010 02:46:05 6.9 C 3.62 g/m*3 6.9 C 0 km/h
375 24-04-2010 02:58:05 6.7 C 3.65 g/m*3 6.7 C 0 km/h
Sensor: Nr:Datum:Temp:Abs-Feuchte:Windchill:Wind:
Aussen-T/F 376 24-04-2010 03:10:05 6.6 C 3.62 g/m*3 6.6 C 0 km/h
377 24-04-2010 03:22:05 6.6 C 3.7 g/m*3 6.6 C 0 km/h
378 24-04-2010 03:34:05 6.2 C 3.6 g/m*3 6.2 C 0 km/h
379 24-04-2010 03:46:05 5.9 C 3.68 g/m*3 5.9 C 0 km/h
380 24-04-2010 03:58:05 5.7 C 3.63 g/m*3 5.7 C 0 km/h
381 24-04-2010 04:10:05 5.6 C 3.68 g/m*3 5.6 C 0 km/h
382 24-04-2010 04:22:05 5.4 C 3.7 g/m*3 5.4 C 0 km/h
383 24-04-2010 04:34:05 5.1 C 3.76 g/m*3 5.1 C 0 km/h
384 24-04-2010 04:46:05 5 C 3.74 g/m*3 5 C 0 km/h
385 24-04-2010 04:58:05 4.8 C 3.82 g/m*3 4.8 C 0 km/h
386 24-04-2010 05:10:05 4.6 C 3.77 g/m*3 4.6 C 0 km/h
387 24-04-2010 05:22:06 4.5 C 3.88 g/m*3 4.5 C 0 km/h
388 24-04-2010 05:34:06 4.4 C 3.85 g/m*3 4.4 C 0 km/h
389 24-04-2010 05:46:06 4.1 C 3.84 g/m*3 4.1 C 0 km/h
390 24-04-2010 05:58:06 4 C 3.88 g/m*3 4 C 0 km/h
391 24-04-2010 06:10:06 3.9 C 3.85 g/m*3 3.9 C 0 km/h
392 24-04-2010 06:22:06 3.7 C 3.86 g/m*3 3.7 C 0 km/h
393 24-04-2010 06:34:06 3.6 C 3.96 g/m*3 3.6 C 0 km/h
394 24-04-2010 06:46:06 3.5 C 4 g/m*3 3.5 C 0 km/h
395 24-04-2010 06:58:06 3.5 C 4 g/m*3 3.5 C 0 km/h
396 24-04-2010 07:10:06 3.6 C 3.96 g/m*3 3.6 C 0 km/h
397 24-04-2010 07:22:06 3.6 C 3.96 g/m*3 3.6 C 0 km/h
398 24-04-2010 07:34:03 3.7 C 4.05 g/m*3 3.7 C 0 km/h
399 24-04-2010 07:46:02 3.9 C 4.11 g/m*3 3.9 C 0 km/h
400 24-04-2010 07:58:02 4.1 C 4.1 g/m*3 4.1 C 0 km/h
Sensor: Nr:Datum:Temp:Abs-Feuchte:Windchill:Wind:
Aussen-T/F 401 24-04-2010 08:10:01 4.3 C 4.15 g/m*3 4.3 C 0 km/h
402 24-04-2010 08:22:02 4.5 C 4.14 g/m*3 4.5 C 0 km/h
403 24-04-2010 08:34:01 4.8 C 4.16 g/m*3 4.8 C 0 km/h
404 24-04-2010 08:46:02 5.2 C 4.06 g/m*3 5.2 C 0 km/h
405 24-04-2010 08:58:02 5.4 C 4.05 g/m*3 5.4 C 0 km/h
406 24-04-2010 09:10:02 6.1 C 4.24 g/m*3 6.1 C 0 km/h
407 24-04-2010 09:22:02 7 C 4.26 g/m*3 7 C 0 km/h
408 24-04-2010 09:34:03 7.7 C 4.3 g/m*3 7.7 C 0 km/h
409 24-04-2010 09:46:02 8.4 C 4.16 g/m*3 8.4 C 0 km/h
410 24-04-2010 09:58:03 9.2 C 4.11 g/m*3 9.2 C 0 km/h
411 24-04-2010 10:10:01 10 C 4.13 g/m*3 10 C 0 km/h
412 24-04-2010 10:22:02 10.5 C 4.07 g/m*3 10.5 C 0 km/h
413 24-04-2010 10:34:02 11.3 C 4.28 g/m*3 11.3 C 0 km/h
414 24-04-2010 10:46:02 12.1 C 4.29 g/m*3 12.1 C 0 km/h
415 24-04-2010 10:58:03 13.1 C 4.11 g/m*3 13.1 C 0 km/h
416 24-04-2010 11:10:02 13.8 C 4.05 g/m*3 13.8 C 0 km/h
417 24-04-2010 11:22:02 14.5 C 3.98 g/m*3 14.5 C 0 km/h
418 24-04-2010 11:34:03 15.1 C 3.87 g/m*3 15.1 C 0 km/h
419 24-04-2010 11:46:02 16 C 3.68 g/m*3 16 C 0 km/h
420 24-04-2010 11:58:03 16.8 C 3.86 g/m*3 16.8 C 0 km/h
421 24-04-2010 12:10:01 17.6 C 3.75 g/m*3 17.6 C 0 km/h
422 24-04-2010 12:22:02 18.4 C 3.15 g/m*3 18.4 C 0 km/h
423 24-04-2010 12:34:02 19 C 3.75 g/m*3 19 C 0 km/h
424 24-04-2010 12:46:02 19.6 C 3.38 g/m*3 19.6 C 0 km/h
425 24-04-2010 12:58:02 19.7 C 3.4 g/m*3 19.7 C 0 km/h
Sensor: Nr:Datum:Temp:Abs-Feuchte:Windchill:Wind:
Aussen-T/F 426 24-04-2010 13:10:02 20.5 C 3.56 g/m*3 20.5 C 0 km/h
427 24-04-2010 13:22:02 21.6 C 3.79 g/m*3 21.6 C 0 km/h
428 24-04-2010 13:34:03 22.3 C 3.95 g/m*3 22.3 C 0 km/h
429 24-04-2010 13:46:02 22.6 C 4.02 g/m*3 22.6 C 0 km/h
430 24-04-2010 13:58:03 22.9 C 4.09 g/m*3 22.9 C 0 km/h
431 24-04-2010 14:10:01 23.2 C 4.16 g/m*3 23.2 C 0 km/h
432 24-04-2010 14:22:02 22.9 C 4.09 g/m*3 22.9 C 0 km/h
433 24-04-2010 14:34:02 23.6 C 4.25 g/m*3 23.6 C 0 km/h
434 24-04-2010 14:46:01 24.6 C 4.5 g/m*3 24.6 C 0 km/h
435 24-04-2010 14:58:01 25.3 C 4.68 g/m*3 25.3 C 0 km/h
436 24-04-2010 15:10:01 25.8 C 4.82 g/m*3 25.8 C 0 km/h
437 24-04-2010 15:22:01 24.7 C 4.53 g/m*3 24.7 C 0 km/h
438 24-04-2010 15:34:02 25.6 C 4.76 g/m*3 25.6 C 0 km/h
439 24-04-2010 15:46:02 25.6 C 4.76 g/m*3 25.6 C 0 km/h
440 24-04-2010 15:58:02 26.4 C 4.98 g/m*3 26.4 C 0 km/h
441 24-04-2010 16:10:01 27.3 C 5.23 g/m*3 27.3 C 0 km/h
442 24-04-2010 16:22:02 27.9 C 5.41 g/m*3 27.9 C 0 km/h
443 24-04-2010 16:34:02 27.7 C 5.35 g/m*3 27.7 C 0 km/h
444 24-04-2010 16:46:01 28.5 C 5.59 g/m*3 28.5 C 0 km/h
445 24-04-2010 16:58:01 28.9 C 5.71 g/m*3 28.9 C 0 km/h
446 24-04-2010 17:10:01 28.9 C 5.71 g/m*3 28.9 C 0 km/h
447 24-04-2010 17:22:01 27.3 C 5.23 g/m*3 27.3 C 0 km/h
448 24-04-2010 17:34:02 28.3 C 5.53 g/m*3 28.3 C 0 km/h
449 24-04-2010 17:46:01 29 C 5.74 g/m*3 29 C 0 km/h
450 24-04-2010 17:58:01 28.8 C 5.68 g/m*3 28.8 C 0 km/h
Sensor: Nr:Datum:Temp:Abs-Feuchte:Windchill:Wind:
Aussen-T/F 451 24-04-2010 18:10:02 28.7 C 5.65 g/m*3 28.7 C 0 km/h
452 24-04-2010 18:22:01 28.2 C 5.5 g/m*3 28.2 C 0 km/h
453 24-04-2010 18:34:02 26.9 C 5.12 g/m*3 26.9 C 0 km/h
454 24-04-2010 18:46:01 27.5 C 5.29 g/m*3 27.5 C 0 km/h
455 24-04-2010 18:58:01 27.7 C 5.35 g/m*3 27.7 C 0 km/h
456 24-04-2010 19:10:02 27.2 C 5.2 g/m*3 27.2 C 0 km/h
457 24-04-2010 19:22:01 26.8 C 5.09 g/m*3 26.8 C 0 km/h
458 24-04-2010 19:34:02 26.3 C 4.95 g/m*3 26.3 C 0 km/h
459 24-04-2010 19:46:02 25.9 C 4.84 g/m*3 25.9 C 0 km/h
460 24-04-2010 19:58:02 25.4 C 4.71 g/m*3 25.4 C 0 km/h
461 24-04-2010 20:10:02 24.3 C 4.43 g/m*3 24.3 C 0 km/h
462 24-04-2010 20:22:02 22.9 C 4.09 g/m*3 22.9 C 0 km/h
463 24-04-2010 20:34:02 21 C 3.66 g/m*3 21 C 0 km/h
464 24-04-2010 20:46:02 20 C 3.46 g/m*3 20 C 0 km/h
465 24-04-2010 20:58:02 19.4 C 3.34 g/m*3 19.4 C 0 km/h
466 24-04-2010 21:10:02 19.2 C 3.3 g/m*3 19.2 C 0 km/h
467 24-04-2010 21:22:02 18.4 C 3.15 g/m*3 18.4 C 0 km/h
468 24-04-2010 21:34:02 18 C 3.07 g/m*3 18 C 0 km/h
469 24-04-2010 21:46:02 17.5 C 2.98 g/m*3 17.5 C 0 km/h
470 24-04-2010 21:58:02 16.8 C 2.86 g/m*3 16.8 C 0 km/h
471 24-04-2010 22:10:02 16.6 C 2.83 g/m*3 16.6 C 0 km/h
472 24-04-2010 22:22:03 16.5 C 2.95 g/m*3 16.5 C 0 km/h
473 24-04-2010 22:34:02 16.2 C 3.17 g/m*3 16.2 C 0 km/h
474 24-04-2010 22:47:03 15.8 C 3.37 g/m*3 15.8 C 0 km/h
475 24-04-2010 22:59:03 15.3 C 3.4 g/m*3 15.3 C 0 km/h
Sensor: Nr:Datum:Temp:Abs-Feuchte:Windchill:Wind:
Aussen-T/F 476 24-04-2010 23:11:03 14.8 C 3.55 g/m*3 14.8 C 0 km/h
477 24-04-2010 23:23:03 14.6 C 3.75 g/m*3 14.6 C 0 km/h
478 24-04-2010 23:35:03 14.1 C 3.76 g/m*3 14.1 C 0 km/h
479 24-04-2010 23:47:03 13.6 C 3.77 g/m*3 13.6 C 0 km/h
480 24-04-2010 23:59:04 13.4 C 3.84 g/m*3 13.4 C 0 km/h
481 25-04-2010 00:11:04 13.1 C 3.88 g/m*3 13.1 C 0 km/h
482 25-04-2010 00:23:04 12.8 C 3.92 g/m*3 12.8 C 0 km/h
483 25-04-2010 00:35:04 12.7 C 4.01 g/m*3 12.7 C 0 km/h
484 25-04-2010 00:47:04 12.2 C 3.99 g/m*3 12.2 C 0 km/h
485 25-04-2010 00:59:04 12.1 C 4.18 g/m*3 12.1 C 0 km/h
486 25-04-2010 01:11:04 11.8 C 4.32 g/m*3 11.8 C 0 km/h
487 25-04-2010 01:23:04 11.4 C 4.21 g/m*3 11.4 C 0 km/h
488 25-04-2010 01:35:04 11.1 C 4.13 g/m*3 11.1 C 0 km/h
489 25-04-2010 01:47:04 11 C 4.2 g/m*3 11 C 0 km/h
490 25-04-2010 01:59:04 10.7 C 4.42 g/m*3 10.7 C 0 km/h
491 25-04-2010 02:11:04 10.5 C 4.27 g/m*3 10.5 C 0 km/h
492 25-04-2010 02:23:04 10.4 C 4.34 g/m*3 10.4 C 0 km/h
493 25-04-2010 02:35:04 10.1 C 4.26 g/m*3 10.1 C 0 km/h
494 25-04-2010 02:47:04 9.9 C 4.2 g/m*3 9.9 C 0 km/h
495 25-04-2010 02:59:04 9.7 C 4.24 g/m*3 9.7 C 0 km/h
496 25-04-2010 03:11:04 9.3 C 4.22 g/m*3 9.3 C 0 km/h
497 25-04-2010 03:23:04 9.1 C 4.26 g/m*3 9.1 C 0 km/h
498 25-04-2010 03:35:04 9 C 4.23 g/m*3 9 C 0 km/h
499 25-04-2010 03:47:04 8.7 C 4.32 g/m*3 8.7 C 0 km/h
500 25-04-2010 03:59:05 8.5 C 4.44 g/m*3 8.5 C 0 km/h
Sensor: Nr:Datum:Temp:Abs-Feuchte:Windchill:Wind:
Aussen-T/F 501 25-04-2010 04:11:05 8 C 4.55 g/m*3 8 C 0 km/h
502 25-04-2010 04:23:05 8 C 4.55 g/m*3 8 C 0 km/h
503 25-04-2010 04:35:05 7.8 C 4.49 g/m*3 7.8 C 0 km/h
504 25-04-2010 04:47:05 7.7 C 4.54 g/m*3 7.7 C 0 km/h
505 25-04-2010 04:59:05 7.6 C 4.51 g/m*3 7.6 C 0 km/h
506 25-04-2010 05:11:05 7.5 C 4.48 g/m*3 7.5 C 0 km/h
507 25-04-2010 05:23:05 7.2 C 4.4 g/m*3 7.2 C 0 km/h
508 25-04-2010 05:35:05 7 C 4.49 g/m*3 7 C 0 km/h
509 25-04-2010 05:47:05 6.8 C 4.59 g/m*3 6.8 C 0 km/h
510 25-04-2010 05:59:05 6.7 C 4.56 g/m*3 6.7 C 0 km/h
511 25-04-2010 06:11:05 6.4 C 4.55 g/m*3 6.4 C 0 km/h
512 25-04-2010 06:23:05 6.3 C 4.59 g/m*3 6.3 C 0 km/h
513 25-04-2010 06:35:05 6.2 C 4.63 g/m*3 6.2 C 0 km/h
514 25-04-2010 06:47:05 6.2 C 4.63 g/m*3 6.2 C 0 km/h
515 25-04-2010 06:59:05 6.2 C 4.63 g/m*3 6.2 C 0 km/h
516 25-04-2010 07:11:04 6.2 C 4.63 g/m*3 6.2 C 0 km/h
517 25-04-2010 07:23:03 6.3 C 4.74 g/m*3 6.3 C 0 km/h
518 25-04-2010 07:35:03 6.5 C 4.8 g/m*3 6.5 C 0 km/h
519 25-04-2010 07:47:02 6.6 C 4.91 g/m*3 6.6 C 0 km/h
520 25-04-2010 07:59:02 6.7 C 4.86 g/m*3 6.7 C 0 km/h
521 25-04-2010 08:11:01 7 C 4.88 g/m*3 7 C 0 km/h
522 25-04-2010 08:23:02 7.3 C 4.9 g/m*3 7.3 C 0 km/h
523 25-04-2010 08:35:01 7.7 C 4.95 g/m*3 7.7 C 0 km/h
524 25-04-2010 08:47:01 8.1 C 4.99 g/m*3 8.1 C 0 km/h
525 25-04-2010 08:59:01 8.5 C 4.95 g/m*3 8.5 C 0 km/h
Sensor: Nr:Datum:Temp:Abs-Feuchte:Windchill:Wind:
Aussen-T/F 526 25-04-2010 09:11:02 9 C 4.94 g/m*3 9 C 0 km/h
527 25-04-2010 09:23:02 9.6 C 4.86 g/m*3 9.6 C 0 km/h
528 25-04-2010 09:35:01 10.4 C 5.01 g/m*3 10.4 C 0 km/h
529 25-04-2010 09:47:02 11.3 C 5.2 g/m*3 11.3 C 0 km/h
530 25-04-2010 09:59:02 12.2 C 5.18 g/m*3 12.2 C 0 km/h
531 25-04-2010 10:11:01 13.6 C 5.3 g/m*3 13.6 C 0 km/h
532 25-04-2010 10:23:02 14.8 C 5.32 g/m*3 14.8 C 0 km/h
533 25-04-2010 10:35:01 15.9 C 5.28 g/m*3 15.9 C 0 km/h
534 25-04-2010 10:47:03 16.7 C 5.4 g/m*3 16.7 C 0 km/h
535 25-04-2010 10:59:03 17.4 C 5.34 g/m*3 17.4 C 0 km/h
536 25-04-2010 11:11:02 18.8 C 5.31 g/m*3 18.8 C 0 km/h
537 25-04-2010 11:23:02 19.8 C 4.27 g/m*3 19.8 C 0 km/h
538 25-04-2010 11:35:02 20.8 C 3.62 g/m*3 20.8 C 0 km/h
539 25-04-2010 11:47:02 21.2 C 3.71 g/m*3 21.2 C 0 km/h
540 25-04-2010 11:59:02 21.7 C 3.82 g/m*3 21.7 C 0 km/h
541 25-04-2010 12:11:02 22.1 C 3.9 g/m*3 22.1 C 0 km/h
542 25-04-2010 12:23:02 22.5 C 3.99 g/m*3 22.5 C 0 km/h
543 25-04-2010 12:35:02 22.5 C 3.99 g/m*3 22.5 C 0 km/h
544 25-04-2010 12:47:02 22.9 C 4.09 g/m*3 22.9 C 0 km/h
545 25-04-2010 12:59:02 24 C 4.35 g/m*3 24 C 0 km/h
546 25-04-2010 13:11:01 24.4 C 4.45 g/m*3 24.4 C 0 km/h
547 25-04-2010 13:23:02 24.9 C 4.58 g/m*3 24.9 C 0 km/h
548 25-04-2010 13:35:01 24.8 C 4.55 g/m*3 24.8 C 0 km/h
549 25-04-2010 13:47:02 25.2 C 4.66 g/m*3 25.2 C 0 km/h
550 25-04-2010 13:59:02 25.3 C 4.68 g/m*3 25.3 C 0 km/h
Sensor: Nr:Datum:Temp:Abs-Feuchte:Windchill:Wind:
Aussen-T/F 551 25-04-2010 14:11:01 25.9 C 4.84 g/m*3 25.9 C 0 km/h
552 25-04-2010 14:23:01 25.8 C 4.82 g/m*3 25.8 C 0 km/h
553 25-04-2010 14:35:01 26.8 C 5.09 g/m*3 26.8 C 0 km/h
554 25-04-2010 14:47:02 26.8 C 5.09 g/m*3 26.8 C 0 km/h
555 25-04-2010 14:59:02 27.4 C 5.26 g/m*3 27.4 C 0 km/h
556 25-04-2010 15:11:02 28.1 C 5.47 g/m*3 28.1 C 0 km/h
557 25-04-2010 15:23:02 27.8 C 5.38 g/m*3 27.8 C 0 km/h
558 25-04-2010 15:35:02 28.7 C 5.65 g/m*3 28.7 C 0 km/h
559 25-04-2010 15:47:02 28.1 C 5.47 g/m*3 28.1 C 0 km/h
560 25-04-2010 15:59:03 28.5 C 5.59 g/m*3 28.5 C 0 km/h
561 25-04-2010 16:11:01 29.1 C 5.78 g/m*3 29.1 C 0 km/h
562 25-04-2010 16:23:01 28.5 C 5.59 g/m*3 28.5 C 0 km/h
563 25-04-2010 16:35:02 28.5 C 5.59 g/m*3 28.5 C 0 km/h
564 25-04-2010 16:47:02 29.9 C 6.03 g/m*3 29.9 C 0 km/h
565 25-04-2010 16:59:03 30.2 C 6.13 g/m*3 30.2 C 0 km/h
566 25-04-2010 17:11:02 29.5 C 5.9 g/m*3 29.5 C 0 km/h
567 25-04-2010 17:23:02 27.5 C 5.29 g/m*3 27.5 C 0 km/h
568 25-04-2010 17:35:02 26.4 C 4.98 g/m*3 26.4 C 0 km/h
569 25-04-2010 17:47:02 25.9 C 4.84 g/m*3 25.9 C 0 km/h
570 25-04-2010 17:59:02 25.7 C 4.79 g/m*3 25.7 C 0 km/h
571 25-04-2010 18:11:01 25.6 C 4.76 g/m*3 25.6 C 0 km/h
572 25-04-2010 18:23:01 26 C 4.87 g/m*3 26 C 0 km/h
573 25-04-2010 18:35:02 26.4 C 4.98 g/m*3 26.4 C 0 km/h
574 25-04-2010 18:47:02 26.5 C 5.01 g/m*3 26.5 C 0 km/h
575 25-04-2010 18:59:02 25.3 C 4.68 g/m*3 25.3 C 0 km/h
Sensor: Nr:Datum:Temp:Abs-Feuchte:Windchill:Wind:
Aussen-T/F 576 25-04-2010 19:11:01 24.7 C 4.53 g/m*3 24.7 C 0 km/h
577 25-04-2010 19:23:02 24.4 C 4.45 g/m*3 24.4 C 0 km/h
578 25-04-2010 19:35:02 24.1 C 4.38 g/m*3 24.1 C 0 km/h
579 25-04-2010 19:47:02 23.4 C 4.21 g/m*3 23.4 C 0 km/h
580 25-04-2010 19:59:02 22.9 C 4.09 g/m*3 22.9 C 0 km/h
581 25-04-2010 20:11:01 22.3 C 3.95 g/m*3 22.3 C 0 km/h
582 25-04-2010 20:23:02 21.6 C 3.98 g/m*3 21.6 C 0 km/h
583 25-04-2010 20:35:01 21 C 3.85 g/m*3 21 C 0 km/h
584 25-04-2010 20:47:03 20.5 C 4.09 g/m*3 20.5 C 0 km/h
585 25-04-2010 20:59:03 20.2 C 4.37 g/m*3 20.2 C 0 km/h
586 25-04-2010 21:11:02 19.9 C 4.3 g/m*3 19.9 C 0 km/h
587 25-04-2010 21:23:02 19.5 C 4.36 g/m*3 19.5 C 0 km/h
588 25-04-2010 21:35:02 19.2 C 4.45 g/m*3 19.2 C 0 km/h
589 25-04-2010 21:47:02 19.1 C 4.75 g/m*3 19.1 C 0 km/h
590 25-04-2010 21:59:02 19.1 C 4.59 g/m*3 19.1 C 0 km/h
591 25-04-2010 22:11:02 19 C 4.73 g/m*3 19 C 0 km/h
592 25-04-2010 22:23:02 18.8 C 4.83 g/m*3 18.8 C 0 km/h
593 25-04-2010 22:35:02 18.5 C 5.06 g/m*3 18.5 C 0 km/h
594 25-04-2010 22:47:02 18.5 C 4.9 g/m*3 18.5 C 0 km/h
595 25-04-2010 22:59:02 18 C 5.07 g/m*3 18 C 0 km/h
596 25-04-2010 23:11:02 18.6 C 5.41 g/m*3 18.6 C 0 km/h
597 25-04-2010 23:23:02 18.6 C 5.73 g/m*3 18.6 C 0 km/h
598 25-04-2010 23:35:02 18.2 C 5.75 g/m*3 18.2 C 0 km/h
599 25-04-2010 23:47:02 18 C 5.99 g/m*3 18 C 0 km/h
600 25-04-2010 23:59:02 17.5 C 5.96 g/m*3 17.5 C 0 km/h
Sensor: Nr:Datum:Temp:Abs-Feuchte:Windchill:Wind:
Aussen-T/F 601 26-04-2010 00:11:02 17.3 C 6.04 g/m*3 17.3 C 0 km/h
602 26-04-2010 00:23:02 17 C 6.22 g/m*3 17 C 0 km/h
603 26-04-2010 00:35:02 17.2 C 6 g/m*3 17.2 C 0 km/h
604 26-04-2010 00:47:02 17.1 C 5.82 g/m*3 17.1 C 0 km/h
605 26-04-2010 00:59:03 16.9 C 5.75 g/m*3 16.9 C 0 km/h
606 26-04-2010 01:11:03 16.7 C 5.83 g/m*3 16.7 C 0 km/h
607 26-04-2010 01:23:03 16.4 C 5.86 g/m*3 16.4 C 0 km/h
608 26-04-2010 01:35:03 16.1 C 6.03 g/m*3 16.1 C 0 km/h
609 26-04-2010 01:47:03 15.9 C 6.09 g/m*3 15.9 C 0 km/h
610 26-04-2010 01:59:03 16 C 6.13 g/m*3 16 C 0 km/h
611 26-04-2010 02:11:03 14.6 C 7.38 g/m*3 14.6 C 0 km/h
612 26-04-2010 02:23:03 13.3 C 8.43 g/m*3 13.3 C 0 km/h
613 26-04-2010 02:35:03 13 C 8.96 g/m*3 13 C 0 km/h
614 26-04-2010 02:47:03 12.5 C 9.02 g/m*3 12.5 C 0 km/h
615 26-04-2010 02:59:03 12.7 C 9.24 g/m*3 12.7 C 0 km/h
616 26-04-2010 03:11:03 12.4 C 9.07 g/m*3 12.4 C 0 km/h
617 26-04-2010 03:23:03 12.6 C 9.18 g/m*3 12.6 C 0 km/h
618 26-04-2010 03:35:03 12.7 C 9.13 g/m*3 12.7 C 0 km/h
619 26-04-2010 03:47:03 12.8 C 8.96 g/m*3 12.8 C 0 km/h
620 26-04-2010 03:59:03 12.7 C 8.79 g/m*3 12.7 C 0 km/h
621 26-04-2010 04:11:03 12.4 C 8.63 g/m*3 12.4 C 0 km/h
622 26-04-2010 04:23:03 12.3 C 8.58 g/m*3 12.3 C 0 km/h
623 26-04-2010 04:35:03 12.2 C 8.52 g/m*3 12.2 C 0 km/h
624 26-04-2010 04:47:03 12.2 C 8.52 g/m*3 12.2 C 0 km/h
625 26-04-2010 04:59:04 12.2 C 8.52 g/m*3 12.2 C 0 km/h
Sensor: Nr:Datum:Temp:Abs-Feuchte:Windchill:Wind:
Aussen-T/F 626 26-04-2010 05:11:04 11.8 C 8.42 g/m*3 11.8 C 0 km/h
627 26-04-2010 05:23:04 11.6 C 8.42 g/m*3 11.6 C 0 km/h
628 26-04-2010 05:35:04 11.5 C 8.37 g/m*3 11.5 C 0 km/h
629 26-04-2010 05:47:04 11.6 C 8.52 g/m*3 11.6 C 0 km/h
630 26-04-2010 05:59:04 11.2 C 8.31 g/m*3 11.2 C 0 km/h
631 26-04-2010 06:11:04 11.1 C 8.36 g/m*3 11.1 C 0 km/h
632 26-04-2010 06:23:04 11 C 8.31 g/m*3 11 C 0 km/h
633 26-04-2010 06:35:04 10.8 C 8.2 g/m*3 10.8 C 0 km/h
634 26-04-2010 06:47:01 10.7 C 8.15 g/m*3 10.7 C 0 km/h
635 26-04-2010 06:59:01 10.7 C 8.25 g/m*3 10.7 C 0 km/h
636 26-04-2010 07:11:01 11.1 C 8.36 g/m*3 11.1 C 0 km/h
637 26-04-2010 07:23:02 10.9 C 8.16 g/m*3 10.9 C 0 km/h
638 26-04-2010 07:35:01 10.8 C 8.11 g/m*3 10.8 C 0 km/h
639 26-04-2010 07:47:02 10.7 C 8.15 g/m*3 10.7 C 0 km/h
640 26-04-2010 07:59:02 11.2 C 8.41 g/m*3 11.2 C 0 km/h
641 26-04-2010 08:11:01 11.2 C 8.31 g/m*3 11.2 C 0 km/h
642 26-04-2010 08:23:01 11.5 C 8.47 g/m*3 11.5 C 0 km/h
643 26-04-2010 08:35:02 12 C 8.42 g/m*3 12 C 0 km/h
644 26-04-2010 08:47:01 12.4 C 8.19 g/m*3 12.4 C 0 km/h
645 26-04-2010 08:59:01 12.7 C 7.9 g/m*3 12.7 C 0 km/h
646 26-04-2010 09:11:01 12.4 C 7.32 g/m*3 12.4 C 0 km/h
647 26-04-2010 09:23:01 12.8 C 7.39 g/m*3 12.8 C 0 km/h
648 26-04-2010 09:35:02 13.1 C 7.19 g/m*3 13.1 C 0 km/h
649 26-04-2010 09:47:01 13.2 C 7.12 g/m*3 13.2 C 0 km/h
650 26-04-2010 09:59:01 13.3 C 6.82 g/m*3 13.3 C 0 km/h
Sensor: Nr:Datum:Temp:Abs-Feuchte:Windchill:Wind:
Aussen-T/F 651 26-04-2010 10:11:02 13.7 C 7.34 g/m*3 13.7 C 0 km/h
652 26-04-2010 10:23:01 14.3 C 7 g/m*3 14.3 C 0 km/h
653 26-04-2010 10:35:02 14.9 C 7.01 g/m*3 14.9 C 0 km/h
654 26-04-2010 10:47:01 15 C 6.8 g/m*3 15 C 0 km/h
655 26-04-2010 10:59:01 15.2 C 6.75 g/m*3 15.2 C 0 km/h
656 26-04-2010 11:11:01 15.5 C 6.74 g/m*3 15.5 C 0 km/h
657 26-04-2010 11:23:01 15.8 C 6.87 g/m*3 15.8 C 0 km/h
658 26-04-2010 11:35:02 16 C 6.54 g/m*3 16 C 0 km/h
659 26-04-2010 11:47:01 16.1 C 6.44 g/m*3 16.1 C 0 km/h
660 26-04-2010 11:59:01 16.2 C 6.48 g/m*3 16.2 C 0 km/h
661 26-04-2010 12:11:02 16.5 C 6.46 g/m*3 16.5 C 0 km/h
662 26-04-2010 12:23:01 17.8 C 6.98 g/m*3 17.8 C 0 km/h
663 26-04-2010 12:35:02 18 C 6.14 g/m*3 18 C 0 km/h
664 26-04-2010 12:47:01 17.7 C 6.34 g/m*3 17.7 C 0 km/h
665 26-04-2010 12:59:01 17.7 C 6.49 g/m*3 17.7 C 0 km/h
666 26-04-2010 13:11:02 18.1 C 6.49 g/m*3 18.1 C 0 km/h
667 26-04-2010 13:23:01 19.1 C 6.56 g/m*3 19.1 C 0 km/h
668 26-04-2010 13:35:02 20.2 C 6.29 g/m*3 20.2 C 0 km/h
669 26-04-2010 13:47:01 19.5 C 6.04 g/m*3 19.5 C 0 km/h
670 26-04-2010 13:59:01 18.1 C 6.18 g/m*3 18.1 C 0 km/h
671 26-04-2010 14:11:02 18.3 C 6.41 g/m*3 18.3 C 0 km/h
672 26-04-2010 14:23:01 19.4 C 6.51 g/m*3 19.4 C 0 km/h
673 26-04-2010 14:35:02 20 C 6.05 g/m*3 20 C 0 km/h
674 26-04-2010 14:47:01 20.5 C 6.23 g/m*3 20.5 C 0 km/h
675 26-04-2010 14:59:01 19.1 C 6.07 g/m*3 19.1 C 0 km/h
Sensor: Nr:Datum:Temp:Abs-Feuchte:Windchill:Wind:
Aussen-T/F 676 26-04-2010 15:11:02 19.2 C 6.1 g/m*3 19.2 C 0 km/h
677 26-04-2010 15:23:01 19.4 C 6.01 g/m*3 19.4 C 0 km/h
678 26-04-2010 15:35:01 19.5 C 5.87 g/m*3 19.5 C 0 km/h
679 26-04-2010 15:47:01 19.4 C 5.84 g/m*3 19.4 C 0 km/h
680 26-04-2010 15:59:01 18.4 C 5.35 g/m*3 18.4 C 0 km/h
681 26-04-2010 16:11:02 20.2 C 5.6 g/m*3 20.2 C 0 km/h
682 26-04-2010 16:23:01 19.8 C 5.3 g/m*3 19.8 C 0 km/h
683 26-04-2010 16:35:01 19.3 C 5.31 g/m*3 19.3 C 0 km/h
684 26-04-2010 16:47:01 19.6 C 5.4 g/m*3 19.6 C 0 km/h
685 26-04-2010 16:59:01 19.5 C 5.37 g/m*3 19.5 C 0 km/h
686 26-04-2010 17:11:02 21.2 C 5.37 g/m*3 21.2 C 0 km/h
687 26-04-2010 17:23:01 22.3 C 5.13 g/m*3 22.3 C 0 km/h
688 26-04-2010 17:35:01 21.5 C 5.09 g/m*3 21.5 C 0 km/h
689 26-04-2010 17:47:01 20.1 C 5.04 g/m*3 20.1 C 0 km/h
690 26-04-2010 17:59:01 19.3 C 5.31 g/m*3 19.3 C 0 km/h
691 26-04-2010 18:11:02 19.1 C 5.57 g/m*3 19.1 C 0 km/h
692 26-04-2010 18:23:01 19 C 5.54 g/m*3 19 C 0 km/h
693 26-04-2010 18:35:01 18.9 C 5.51 g/m*3 18.9 C 0 km/h
694 26-04-2010 18:47:01 19.7 C 5.6 g/m*3 19.7 C 0 km/h
695 26-04-2010 18:59:01 20.2 C 5.25 g/m*3 20.2 C 0 km/h
696 26-04-2010 19:11:02 19.5 C 5.37 g/m*3 19.5 C 0 km/h
697 26-04-2010 19:23:01 18.7 C 5.44 g/m*3 18.7 C 0 km/h
698 26-04-2010 19:35:01 18.3 C 5.63 g/m*3 18.3 C 0 km/h
699 26-04-2010 19:47:01 18.2 C 5.44 g/m*3 18.2 C 0 km/h
700 26-04-2010 19:59:01 18.5 C 5.7 g/m*3 18.5 C 0 km/h
Sensor: Nr:Datum:Temp:Abs-Feuchte:Windchill:Wind:
Aussen-T/F 701 26-04-2010 20:11:01 18.8 C 5.64 g/m*3 18.8 C 0 km/h
702 26-04-2010 20:23:01 18.1 C 5.56 g/m*3 18.1 C 0 km/h
703 26-04-2010 20:35:01 17.1 C 5.39 g/m*3 17.1 C 0 km/h
704 26-04-2010 20:47:01 16.7 C 5.68 g/m*3 16.7 C 0 km/h
705 26-04-2010 20:59:01 16.2 C 5.52 g/m*3 16.2 C 0 km/h
706 26-04-2010 21:11:01 16.1 C 5.35 g/m*3 16.1 C 0 km/h
707 26-04-2010 21:23:01 15.9 C 5.55 g/m*3 15.9 C 0 km/h
708 26-04-2010 21:35:01 15.8 C 5.52 g/m*3 15.8 C 0 km/h
709 26-04-2010 21:47:01 15.8 C 5.65 g/m*3 15.8 C 0 km/h
710 26-04-2010 21:59:01 15.7 C 5.62 g/m*3 15.7 C 0 km/h
711 26-04-2010 22:11:02 15.6 C 5.72 g/m*3 15.6 C 0 km/h
712 26-04-2010 22:23:01 15.4 C 5.78 g/m*3 15.4 C 0 km/h
713 26-04-2010 22:35:02 15.4 C 5.65 g/m*3 15.4 C 0 km/h
714 26-04-2010 22:49:05 15.2 C 5.71 g/m*3 15.2 C 0 km/h
715 26-04-2010 23:01:05 15.2 C 5.84 g/m*3 15.2 C 0 km/h
716 26-04-2010 23:13:05 15.1 C 5.81 g/m*3 15.1 C 0 km/h
717 26-04-2010 23:25:05 14.6 C 6.01 g/m*3 14.6 C 0 km/h
718 26-04-2010 23:37:05 14.2 C 5.98 g/m*3 14.2 C 0 km/h
719 26-04-2010 23:49:05 14.1 C 5.95 g/m*3 14.1 C 0 km/h
720 27-04-2010 00:01:05 14 C 6.03 g/m*3 14 C 0 km/h
721 27-04-2010 00:13:05 13.7 C 6.04 g/m*3 13.7 C 0 km/h
722 27-04-2010 00:25:05 13.7 C 6.16 g/m*3 13.7 C 0 km/h
723 27-04-2010 00:37:06 13.5 C 6.08 g/m*3 13.5 C 0 km/h
724 27-04-2010 00:49:06 13.6 C 6.24 g/m*3 13.6 C 0 km/h
725 27-04-2010 01:01:06 13.6 C 6.24 g/m*3 13.6 C 0 km/h
Sensor: Nr:Datum:Temp:Abs-Feuchte:Windchill:Wind:
Aussen-T/F 726 27-04-2010 01:13:06 13.4 C 6.16 g/m*3 13.4 C 0 km/h
727 27-04-2010 01:25:06 13.4 C 6.28 g/m*3 13.4 C 0 km/h
728 27-04-2010 01:37:06 13.2 C 6.2 g/m*3 13.2 C 0 km/h
729 27-04-2010 01:49:06 12.9 C 6.31 g/m*3 12.9 C 0 km/h
730 27-04-2010 02:01:06 13 C 6.35 g/m*3 13 C 0 km/h
731 27-04-2010 02:13:06 13 C 6.46 g/m*3 13 C 0 km/h
732 27-04-2010 02:25:06 12.6 C 6.42 g/m*3 12.6 C 0 km/h
733 27-04-2010 02:37:06 12.4 C 6.45 g/m*3 12.4 C 0 km/h
734 27-04-2010 02:49:06 12 C 6.5 g/m*3 12 C 0 km/h
735 27-04-2010 03:01:06 11.8 C 6.53 g/m*3 11.8 C 0 km/h
736 27-04-2010 03:13:06 11.6 C 6.55 g/m*3 11.6 C 0 km/h
737 27-04-2010 03:25:06 11.2 C 6.49 g/m*3 11.2 C 0 km/h
738 27-04-2010 03:37:06 10.9 C 6.56 g/m*3 10.9 C 0 km/h
739 27-04-2010 03:49:06 10.8 C 6.52 g/m*3 10.8 C 0 km/h
740 27-04-2010 04:01:06 10.8 C 6.62 g/m*3 10.8 C 0 km/h
741 27-04-2010 04:13:06 10.6 C 6.44 g/m*3 10.6 C 0 km/h
742 27-04-2010 04:25:06 10.3 C 6.42 g/m*3 10.3 C 0 km/h
743 27-04-2010 04:37:07 10.1 C 6.52 g/m*3 10.1 C 0 km/h
744 27-04-2010 04:49:07 9.8 C 6.68 g/m*3 9.8 C 0 km/h
745 27-04-2010 05:01:07 9.6 C 6.6 g/m*3 9.6 C 0 km/h
746 27-04-2010 05:13:07 9.4 C 6.6 g/m*3 9.4 C 0 km/h
747 27-04-2010 05:25:07 9.2 C 6.61 g/m*3 9.2 C 0 km/h
748 27-04-2010 05:37:07 9 C 6.52 g/m*3 9 C 0 km/h
749 27-04-2010 05:49:07 8.7 C 6.49 g/m*3 8.7 C 0 km/h
750 27-04-2010 06:01:07 8.8 C 6.61 g/m*3 8.8 C 0 km/h
Sensor: Nr:Datum:Temp:Abs-Feuchte:Windchill:Wind:
Aussen-T/F 751 27-04-2010 06:13:07 8.4 C 6.62 g/m*3 8.4 C 0 km/h
752 27-04-2010 06:25:07 8.2 C 6.62 g/m*3 8.2 C 0 km/h
753 27-04-2010 06:37:05 8.1 C 6.57 g/m*3 8.1 C 0 km/h
754 27-04-2010 06:49:01 8.1 C 6.66 g/m*3 8.1 C 0 km/h
755 27-04-2010 07:01:02 8.1 C 6.74 g/m*3 8.1 C 0 km/h
756 27-04-2010 07:13:02 8.1 C 6.74 g/m*3 8.1 C 0 km/h
757 27-04-2010 07:25:02 8 C 6.7 g/m*3 8 C 0 km/h
758 27-04-2010 07:37:02 8.2 C 6.78 g/m*3 8.2 C 0 km/h
759 27-04-2010 07:49:01 8.6 C 6.96 g/m*3 8.6 C 0 km/h
760 27-04-2010 08:01:02 8.6 C 6.87 g/m*3 8.6 C 0 km/h
761 27-04-2010 08:13:02 8.9 C 6.92 g/m*3 8.9 C 0 km/h
762 27-04-2010 08:25:01 9.2 C 6.88 g/m*3 9.2 C 0 km/h
763 27-04-2010 08:37:02 9.2 C 6.88 g/m*3 9.2 C 0 km/h
764 27-04-2010 08:49:02 9.7 C 7.01 g/m*3 9.7 C 0 km/h
765 27-04-2010 09:01:02 10.1 C 7 g/m*3 10.1 C 0 km/h
766 27-04-2010 09:13:02 10.6 C 7.03 g/m*3 10.6 C 0 km/h
767 27-04-2010 09:25:01 11.1 C 7.05 g/m*3 11.1 C 0 km/h
768 27-04-2010 09:37:02 11.8 C 7.37 g/m*3 11.8 C 0 km/h
769 27-04-2010 09:49:01 12.4 C 7.32 g/m*3 12.4 C 0 km/h
770 27-04-2010 10:01:02 13 C 7.14 g/m*3 13 C 0 km/h
771 27-04-2010 10:13:02 13.6 C 7.06 g/m*3 13.6 C 0 km/h
772 27-04-2010 10:25:02 14.1 C 6.92 g/m*3 14.1 C 0 km/h
773 27-04-2010 10:37:02 14.3 C 6.76 g/m*3 14.3 C 0 km/h
774 27-04-2010 10:49:01 14 C 6.27 g/m*3 14 C 0 km/h
775 27-04-2010 11:01:02 14.6 C 6.51 g/m*3 14.6 C 0 km/h
Sensor: Nr:Datum:Temp:Abs-Feuchte:Windchill:Wind:
Aussen-T/F 776 27-04-2010 11:13:02 15.3 C 6.53 g/m*3 15.3 C 0 km/h
777 27-04-2010 11:25:02 16.1 C 6.44 g/m*3 16.1 C 0 km/h
778 27-04-2010 11:37:02 16.9 C 6.62 g/m*3 16.9 C 0 km/h
779 27-04-2010 11:49:01 17.4 C 6.52 g/m*3 17.4 C 0 km/h
780 27-04-2010 12:01:02 18.1 C 6.49 g/m*3 18.1 C 0 km/h
781 27-04-2010 12:13:02 17.8 C 6.37 g/m*3 17.8 C 0 km/h
782 27-04-2010 12:25:02 18.8 C 6.44 g/m*3 18.8 C 0 km/h
783 27-04-2010 12:37:02 19.3 C 6.14 g/m*3 19.3 C 0 km/h
784 27-04-2010 12:49:01 18.6 C 5.73 g/m*3 18.6 C 0 km/h
785 27-04-2010 13:01:02 19.1 C 5.74 g/m*3 19.1 C 0 km/h
786 27-04-2010 13:13:02 19.7 C 5.94 g/m*3 19.7 C 0 km/h
787 27-04-2010 13:25:02 21 C 5.68 g/m*3 21 C 0 km/h
788 27-04-2010 13:37:01 20.9 C 5.28 g/m*3 20.9 C 0 km/h
789 27-04-2010 13:49:02 21 C 4.95 g/m*3 21 C 0 km/h
790 27-04-2010 14:01:01 21.3 C 4.85 g/m*3 21.3 C 0 km/h
791 27-04-2010 14:13:01 22.1 C 4.88 g/m*3 22.1 C 0 km/h
792 27-04-2010 14:25:02 21.9 C 5.21 g/m*3 21.9 C 0 km/h
793 27-04-2010 14:37:01 21.8 C 4.8 g/m*3 21.8 C 0 km/h
794 27-04-2010 14:49:02 20 C 4.84 g/m*3 20 C 0 km/h
795 27-04-2010 15:01:01 21.5 C 4.9 g/m*3 21.5 C 0 km/h
796 27-04-2010 15:13:01 23.9 C 4.98 g/m*3 23.9 C 0 km/h
797 27-04-2010 15:25:02 22.6 C 4.22 g/m*3 22.6 C 0 km/h
798 27-04-2010 15:37:01 23.2 C 4.78 g/m*3 23.2 C 0 km/h
799 27-04-2010 15:49:03 21.9 C 4.25 g/m*3 21.9 C 0 km/h
800 27-04-2010 16:01:02 22.5 C 4.39 g/m*3 22.5 C 0 km/h
Sensor: Nr:Datum:Temp:Abs-Feuchte:Windchill:Wind:
Aussen-T/F 801 27-04-2010 16:13:02 22.6 C 4.02 g/m*3 22.6 C 0 km/h
802 27-04-2010 16:25:02 23.3 C 4.39 g/m*3 23.3 C 0 km/h
803 27-04-2010 16:37:02 23.9 C 4.33 g/m*3 23.9 C 0 km/h
804 27-04-2010 16:49:02 23.7 C 4.28 g/m*3 23.7 C 0 km/h
805 27-04-2010 17:01:02 24.2 C 4.4 g/m*3 24.2 C 0 km/h
806 27-04-2010 17:13:02 22.7 C 4.24 g/m*3 22.7 C 0 km/h
807 27-04-2010 17:25:02 24 C 4.35 g/m*3 24 C 0 km/h
808 27-04-2010 17:37:02 23.8 C 4.3 g/m*3 23.8 C 0 km/h
809 27-04-2010 17:49:02 23.1 C 4.13 g/m*3 23.1 C 0 km/h
810 27-04-2010 18:01:02 24.2 C 4.4 g/m*3 24.2 C 0 km/h
811 27-04-2010 18:13:02 24.1 C 4.38 g/m*3 24.1 C 0 km/h
812 27-04-2010 18:25:02 23.2 C 4.16 g/m*3 23.2 C 0 km/h
813 27-04-2010 18:37:01 22.4 C 3.97 g/m*3 22.4 C 0 km/h
814 27-04-2010 18:49:02 22.2 C 3.93 g/m*3 22.2 C 0 km/h
815 27-04-2010 19:01:01 21.3 C 3.73 g/m*3 21.3 C 0 km/h
816 27-04-2010 19:13:01 21.3 C 4.1 g/m*3 21.3 C 0 km/h
817 27-04-2010 19:25:02 20.6 C 4.12 g/m*3 20.6 C 0 km/h
818 27-04-2010 19:37:01 20.2 C 4.37 g/m*3 20.2 C 0 km/h
819 27-04-2010 19:49:02 20 C 4.67 g/m*3 20 C 0 km/h
820 27-04-2010 20:01:01 19.7 C 4.92 g/m*3 19.7 C 0 km/h
821 27-04-2010 20:13:01 19.3 C 4.98 g/m*3 19.3 C 0 km/h
822 27-04-2010 20:25:02 18.4 C 5.03 g/m*3 18.4 C 0 km/h
823 27-04-2010 20:37:01 17.5 C 5.22 g/m*3 17.5 C 0 km/h
824 27-04-2010 20:49:02 16.8 C 5 g/m*3 16.8 C 0 km/h
825 27-04-2010 21:01:02 16.3 C 4.99 g/m*3 16.3 C 0 km/h
Sensor: Nr:Datum:Temp:Abs-Feuchte:Windchill:Wind:
Aussen-T/F 826 27-04-2010 21:13:02 15.9 C 5.01 g/m*3 15.9 C 0 km/h
827 27-04-2010 21:25:02 15.5 C 5.02 g/m*3 15.5 C 0 km/h
828 27-04-2010 21:37:02 15.2 C 4.93 g/m*3 15.2 C 0 km/h
829 27-04-2010 21:50:02 15.1 C 5.16 g/m*3 15.1 C 0 km/h
830 27-04-2010 22:02:02 14.9 C 5.23 g/m*3 14.9 C 0 km/h
831 27-04-2010 22:14:02 14.7 C 5.16 g/m*3 14.7 C 0 km/h
832 27-04-2010 22:26:02 14.4 C 5.19 g/m*3 14.4 C 0 km/h
833 27-04-2010 22:38:02 14.2 C 5.13 g/m*3 14.2 C 0 km/h
834 27-04-2010 22:50:02 14 C 5.19 g/m*3 14 C 0 km/h
835 27-04-2010 23:02:03 13.7 C 5.33 g/m*3 13.7 C 0 km/h
836 27-04-2010 23:14:03 13.4 C 5.35 g/m*3 13.4 C 0 km/h
837 27-04-2010 23:26:03 13.1 C 5.36 g/m*3 13.1 C 0 km/h
838 27-04-2010 23:38:03 12.7 C 5.34 g/m*3 12.7 C 0 km/h
839 27-04-2010 23:50:03 12.6 C 5.42 g/m*3 12.6 C 0 km/h

Legende:
   Min
   Max


Maximal/Minimal-Werte vom 21.04.2010 - 27.04.2010

Sensor Min Max Avg
Temp
(Aussen-T/F)
-0.2 °C
22-04-2010  06:08:04
30.2 °C
25-04-2010  16:59:03
12.91 °C
Abs-Feuchte
(Aussen-T/F)
2.13 g/m*3
22-04-2010  13:20:01
9.24 g/m*3
26-04-2010  02:59:03
4.53 g/m*3
Windchill
(Aussen-T/F)
-0.2 C
22-04-2010  06:08:04
30.2 C
25-04-2010  16:59:03
12.89 C

Die Daten stammen von einer Davis Vantage Pro 2 Wetter-Station und werden unter Linux mit der Software wview2wettercgi und aufbereitet. Alle Angaben erfolgen ohne Gewähr für ihre Vollständigkeit oder Richtigkeit.
Kontakt: Rainer Krienke krienke@uni-koblenz.de . Meine Webseiten an der Uni Koblenz oder privat.
Version: $Revision: 0.78 $